Helena, Arkansas, United States (72342)
Lat: 34.53N, Lon: 90.59W
Wx Zone: ARZ058
Local Info
Past Weather Observations for Thursday, May 26, 2016

NOTE: This archive is for the closest National Weather Service station to Helena. Information may differ from the station used for current weather conditions.

Click here for Long-term Archive

Time Weather Temperature Dewpoint Humidity Pressure Winds Precip Visibility
23:55
Clear
72°F / 22°C 70°F / 21°C 94% 29.92 in
(1013 mb)
Calm - 10SM
23:35
Partly Cloudy
70°F / 21°C 70°F / 21°C 100% 29.92 in
(1013 mb)
ENE 5.8 mph
(ENE 9 kph)
- 10SM
23:15
Partly Cloudy
70°F / 21°C 70°F / 21°C 100% 29.92 in
(1013 mb)
ENE 5.8 mph
(ENE 9 kph)
- 10SM
22:55
Mostly Cloudy
72°F / 22°C 70°F / 21°C 94% 29.92 in
(1013 mb)
NE 4.6 mph
(NE 7 kph)
- 10SM
22:35
Mostly Cloudy
72°F / 22°C 70°F / 21°C 94% 29.95 in
(1014 mb)
NE 5.8 mph
(NE 9 kph)
- 10SM
22:15
Mostly Cloudy
Light Rain
73°F / 23°C 72°F / 22°C 94% 29.95 in
(1014 mb)
E 3.5 mph
(E 6 kph)
- 10SM
21:55
Mostly Cloudy
73°F / 23°C 72°F / 22°C 94% 29.95 in
(1014 mb)
SE 3.5 mph
(SE 6 kph)
- 10SM
21:35
Mostly Cloudy
73°F / 23°C 72°F / 22°C 94% 29.95 in
(1014 mb)
SW 3.5 mph
(SW 6 kph)
- 10SM
21:15
Mostly Cloudy
75°F / 24°C 72°F / 22°C 89% 29.95 in
(1014 mb)
SW 4.6 mph
(SW 7 kph)
- 10SM
20:55
Partly Cloudy
Light Rain
75°F / 24°C 72°F / 22°C 89% 29.95 in
(1014 mb)
SW 5.8 mph
(SW 9 kph)
0.01 in
(0.25 mm)
10SM
20:35
Partly Cloudy
75°F / 24°C 72°F / 22°C 89% 29.95 in
(1014 mb)
SW 4.6 mph
(SW 7 kph)
- 10SM
20:15
Partly Cloudy
75°F / 24°C 72°F / 22°C 89% 29.95 in
(1014 mb)
SW 6.9 mph
(SW 11 kph)
- 10SM
19:55
Clear
77°F / 25°C 72°F / 22°C 83% 29.95 in
(1014 mb)
SSE 4.6 mph
(SSE 7 kph)
0.04 in
(1.02 mm)
10SM
19:35
Partly Cloudy
77°F / 25°C 72°F / 22°C 83% 29.95 in
(1014 mb)
SW 4.6 mph
(SW 7 kph)
0.04 in
(1.02 mm)
10SM
19:15
Mostly Cloudy
77°F / 25°C 72°F / 22°C 83% 29.95 in
(1014 mb)
SW 5.8 mph
(SW 9 kph)
0.04 in
(1.02 mm)
10SM
16:55
Overcast
Rain
75°F / 24°C 70°F / 21°C 83% 29.92 in
(1013 mb)
SSE 3.5 mph
(SSE 6 kph)
0.19 in
(4.83 mm)
5SM
16:35
Overcast
Rain
72°F / 22°C 64°F / 18°C 78% 29.95 in
(1014 mb)
SSW 5.8 mph
(SSW 9 kph)
0.15 in
(3.81 mm)
5SM
16:15
Overcast
Rain
75°F / 24°C 70°F / 21°C 83% 29.92 in
(1013 mb)
SW 17.3 mph
(SW 28 kph)
0.05 in
(1.27 mm)
5SM
15:55
Overcast
Light Rain
73°F / 23°C 70°F / 21°C 89% 29.95 in
(1014 mb)
SSW 11.5 mph
(SSW 19 kph)
0.05 in
(1.27 mm)
7SM
15:35
Mostly Cloudy
Rain
73°F / 23°C 64°F / 18°C 74% 29.98 in
(1015 mb)
SW 21.9 mph
(SW 35 kph)
- 10SM
15:15
Mostly Cloudy
Rain
86°F / 30°C 70°F / 21°C 59% 29.95 in
(1014 mb)
SSE 15 mph
(SSE 24 kph)
- 7SM
14:55
Partly Cloudy
86°F / 30°C 70°F / 21°C 59% 29.95 in
(1014 mb)
S 8.1 mph
(S 13 kph)
- 10SM
14:35
Partly Cloudy
86°F / 30°C 70°F / 21°C 59% 29.98 in
(1015 mb)
SSE 11.5 mph
(SSE 19 kph)
- 10SM
14:15
Clear
88°F / 31°C 70°F / 21°C 55% 29.98 in
(1015 mb)
SSE 11.5 mph
(SSE 19 kph)
- 10SM
13:55
Partly Cloudy
88°F / 31°C 70°F / 21°C 55% 29.98 in
(1015 mb)
SSE 11.5 mph
(SSE 19 kph)
- 10SM
13:35
Partly Cloudy
88°F / 31°C 72°F / 22°C 59% 29.98 in
(1015 mb)
SSE 10.4 mph
(SSE 17 kph)
- 10SM
13:15
Partly Cloudy
86°F / 30°C 70°F / 21°C 59% 30.01 in
(1016 mb)
SSE 10.4 mph
(SSE 17 kph)
- 10SM
12:55
Partly Cloudy
88°F / 31°C 70°F / 21°C 55% 30.01 in
(1016 mb)
S 10.4 mph
(S 17 kph)
- 10SM
12:35
Partly Cloudy
86°F / 30°C 70°F / 21°C 59% 30.01 in
(1016 mb)
SSE 12.7 mph
(SSE 20 kph)
- 10SM
12:15
Partly Cloudy
86°F / 30°C 70°F / 21°C 59% 30.04 in
(1017 mb)
SSE 10.4 mph
(SSE 17 kph)
- 10SM
11:55
Partly Cloudy
86°F / 30°C 70°F / 21°C 59% 30.04 in
(1017 mb)
SW 11.5 mph
(SW 19 kph)
- 10SM
11:35
Partly Cloudy
84°F / 29°C 72°F / 22°C 66% 30.04 in
(1017 mb)
S 10.4 mph
(S 17 kph)
- 10SM
11:15
Partly Cloudy
84°F / 29°C 72°F / 22°C 66% 30.04 in
(1017 mb)
SW 11.5 mph
(SW 19 kph)
- 10SM
10:55
Partly Cloudy
82°F / 28°C 70°F / 21°C 66% 30.04 in
(1017 mb)
SW 8.1 mph
(SW 13 kph)
- 10SM
10:35
Partly Cloudy
82°F / 28°C 70°F / 21°C 66% 30.06 in
(1018 mb)
S 9.2 mph
(S 15 kph)
- 10SM
10:15
Partly Cloudy
82°F / 28°C 72°F / 22°C 70% 30.06 in
(1018 mb)
S 10.4 mph
(S 17 kph)
- 10SM
09:55
Partly Cloudy
81°F / 27°C 72°F / 22°C 74% 30.06 in
(1018 mb)
SW 11.5 mph
(SW 19 kph)
- 10SM
09:35
Mostly Cloudy
81°F / 27°C 72°F / 22°C 74% 30.06 in
(1018 mb)
SW 10.4 mph
(SW 17 kph)
- 10SM
09:15
Mostly Cloudy
81°F / 27°C 70°F / 21°C 70% 30.06 in
(1018 mb)
SW 12.7 mph
(SW 20 kph)
- 10SM
08:55
Mostly Cloudy
81°F / 27°C 72°F / 22°C 74% 30.06 in
(1018 mb)
SSE 16.1 mph
(SSE 26 kph)
- 10SM
08:35
Mostly Cloudy
79°F / 26°C 72°F / 22°C 79% 30.06 in
(1018 mb)
S 13.8 mph
(S 22 kph)
- 10SM
08:15
Mostly Cloudy
79°F / 26°C 72°F / 22°C 79% 30.06 in
(1018 mb)
S 15 mph
(S 24 kph)
- 10SM
07:55
Mostly Cloudy
79°F / 26°C 72°F / 22°C 79% 30.09 in
(1019 mb)
S 15 mph
(S 24 kph)
- 10SM
07:35
Overcast
77°F / 25°C 72°F / 22°C 83% 30.06 in
(1018 mb)
S 10.4 mph
(S 17 kph)
- 10SM
07:15
Mostly Cloudy
77°F / 25°C 72°F / 22°C 83% 30.06 in
(1018 mb)
S 11.5 mph
(S 19 kph)
- 10SM
06:55
Clear
75°F / 24°C 72°F / 22°C 89% 30.06 in
(1018 mb)
S 10.4 mph
(S 17 kph)
- 10SM
06:35
Clear
75°F / 24°C 70°F / 21°C 83% 30.06 in
(1018 mb)
S 11.5 mph
(S 19 kph)
- 10SM
06:15
Partly Cloudy
73°F / 23°C 70°F / 21°C 89% 30.06 in
(1018 mb)
S 9.2 mph
(S 15 kph)
- 10SM
05:55
Partly Cloudy
72°F / 22°C 70°F / 21°C 94% 30.06 in
(1018 mb)
S 8.1 mph
(S 13 kph)
- 10SM
05:35
Clear
72°F / 22°C 68°F / 20°C 88% 30.06 in
(1018 mb)
S 9.2 mph
(S 15 kph)
- 10SM
05:15
Clear
72°F / 22°C 68°F / 20°C 88% 30.06 in
(1018 mb)
SSE 8.1 mph
(SSE 13 kph)
- 10SM
04:55
Clear
72°F / 22°C 68°F / 20°C 88% 30.06 in
(1018 mb)
S 8.1 mph
(S 13 kph)
- 10SM
04:35
Clear
72°F / 22°C 68°F / 20°C 88% 30.06 in
(1018 mb)
S 9.2 mph
(S 15 kph)
- 10SM
04:15
Clear
72°F / 22°C 68°F / 20°C 88% 30.04 in
(1017 mb)
S 9.2 mph
(S 15 kph)
- 10SM
03:55
Clear
72°F / 22°C 68°F / 20°C 88% 30.04 in
(1017 mb)
S 9.2 mph
(S 15 kph)
- 10SM
03:35
Partly Cloudy
72°F / 22°C 68°F / 20°C 88% 30.04 in
(1017 mb)
S 10.4 mph
(S 17 kph)
- 10SM
03:15
Partly Cloudy
72°F / 22°C 68°F / 20°C 88% 30.04 in
(1017 mb)
S 9.2 mph
(S 15 kph)
- 10SM
02:55
Mostly Cloudy
72°F / 22°C 66°F / 19°C 83% 30.04 in
(1017 mb)
S 8.1 mph
(S 13 kph)
- 10SM
02:35
Mostly Cloudy
72°F / 22°C 66°F / 19°C 83% 30.04 in
(1017 mb)
S 9.2 mph
(S 15 kph)
- 10SM
02:15
Mostly Cloudy
72°F / 22°C 66°F / 19°C 83% 30.04 in
(1017 mb)
SSE 6.9 mph
(SSE 11 kph)
- 10SM
01:55
Mostly Cloudy
70°F / 21°C 66°F / 19°C 88% 30.04 in
(1017 mb)
SSE 6.9 mph
(SSE 11 kph)
- 10SM
01:35
Mostly Cloudy
72°F / 22°C 66°F / 19°C 83% 30.04 in
(1017 mb)
SSE 6.9 mph
(SSE 11 kph)
- 10SM
01:15
Clear
70°F / 21°C 66°F / 19°C 88% 30.04 in
(1017 mb)
SSE 6.9 mph
(SSE 11 kph)
- 10SM
00:55
Partly Cloudy
70°F / 21°C 66°F / 19°C 88% 30.04 in
(1017 mb)
S 5.8 mph
(S 9 kph)
- 10SM
00:35
Partly Cloudy
70°F / 21°C 66°F / 19°C 88% 30.04 in
(1017 mb)
S 4.6 mph
(S 7 kph)
- 10SM
00:15
Clear
70°F / 21°C 68°F / 20°C 94% 30.04 in
(1017 mb)
S 5.8 mph
(S 9 kph)
- 10SM
Time Weather Temperature Dewpoint Humidity Pressure Winds Precip Visibility


Weather for websites

WeatherForYou.com, LLC is not responsible for any damages or problems caused by this service. Current weather conditions are obtained from the closest station including government and personal stations which may have varying degrees of accuracy. Weather forecasts are derived from the NOAA NDFD. Like all things, this site belongs to Jesus Christ... He just trusts us to maintain it. If you have any questions or comments email webmaster@weatherforyou.com

Copyright © 2016, WeatherForYou.com LLC. All rights reserved.